World > North America > United States > Mississippi > Oxford   City of Oxford, MS

Oxford, MS Hourly Weather Updates

Feedback E-mail the Weather

Quick Clicks

Oxford, MS Weather Maps

°F °C°F °C
Oxford Weather Map
UTC Time: 5/19/2024, 11:15
Your Time:

Oxford, MS Regional Weather

Expires:202405191200;;477197
ASUS44 KJAN 191110
RWRMS 

MISSISSIPPI HOURLY WEATHER ROUNDUP
NATIONAL WEATHER SERVICE JACKSON MS
600 AM CDT SUN MAY 19 2024

NOTE: "FAIR: INDICATES FEW OR NO CLOUDS BELOW 12,000 FEET WITH NO
SIGNIFICANT WEATHER AND/OR OBSTRUCTIONS TO VISIBILITY.


MSZ001>002-007>008-010>013-018>021-025>028-034>036-191200-
NORTHWEST MISSISSIPPI
  
CITY           SKY/WX    TMP DP  RH WIND       PRES   REMARKS
BATESVILLE     CLEAR     61  61 100 CALM      29.96S                  
CLARKSDALE       N/A     64 N/A N/A CALM      29.98R HAZE             
GREENWOOD      CLEAR     63  60  90 CALM      29.97R                  
GREENVILLE     CLEAR     66  63  90 CALM      29.97R                  
OLIVE BRANCH     N/A     63  63 100 CALM      29.96S                  
OXFORD         MOCLDY    59  59 100 CALM      29.99R                  
TUNICA         FOG       65  65 100 CALM      29.97R VSB 3/4          
WINONA         CLEAR     59  59  99 CALM      29.97R                  
$$


SKY/WX - Weather  TMP - Temperature  DP - Dew Point  RH - Humidity
WIND - Wind Direction/Speed PRES - Barometric Pressure VSB - Visibility
WCI - Wind Chill Index E13G22 Wind - East Wind 13 mph/Gusts of 22 mph

Trending Headlines

Trending Entertainment Headlines

Oxford Radar Loop

Use the map search tool if you want to place a location marker on the radar map...

Oxford Quick Facts

National Two Day Weather Forecast


E-mail the Oxford Weather Forecast

Voice your opinion or tell us about page issues...